Location: Beaufort Park
(39.1418°N, 76.9433°W)
Time: 00:25:53
(UTC+00:00)

Cosmos 2369 - Pass Details

Date: 29 October 2020
Orbit: 841 x 854 km, 71.0° (Epoch: 03 December)

Event Time Altitude Azimuth Distance (km) Brightness Sun altitude
Rises 23:30:08 0° 200° (SSW) 3,407 7.2 -16.1°
Reaches altitude 10° 23:32:35 10° 200° (SSW) 2,474 6.4 -16.6°
Maximum altitude 23:38:16 88° 114° (ESE) 857 3.7 -17.7°
Drops below altitude 10° 23:44:00 10° 23° (NNE) 2,482 5.9 -18.8°
Enters shadow 23:45:17 - 23° (NNE) 2,976 6.3 -19.1°
